| time (UTC) | temp F | wind direction | speed MPH | gust MPH | rain 1hr in | rain 24hr in | rain mn in | humidity % | barometer mb |
| 20260906075537 | 71 | 171 | 0.0 | 1.0 | 0.00 | 0.00 | 0.00 | 96 | 1011.1 |
| 20260906075017 | 71 | 182 | 0.0 | 1.0 | 0.00 | 0.00 | 0.00 | 96 | 1011.1 |
| 20260906074538 | 71 | 192 | 0.0 | 2.0 | 0.00 | 0.00 | 0.00 | 96 | 1011.1 |
| 20260906074018 | 71 | 186 | 0.0 | 2.0 | 0.00 | 0.00 | 0.00 | 95 | 1011.0 |
| 20260906073518 | 71 | 188 | 0.0 | 2.0 | 0.00 | 0.00 | 0.00 | 95 | 1011.0 |
| 20260906073018 | 71 | 181 | 0.0 | 2.0 | 0.00 | 0.00 | 0.00 | 95 | 1011.0 |
| 20260906072518 | 71 | 186 | 0.0 | 2.0 | 0.00 | 0.00 | 0.00 | 94 | 1011.1 |
| 20260906072018 | 71 | 185 | 0.0 | 1.0 | 0.00 | 0.00 | 0.00 | 94 | 1011.2 |
| 20260906071518 | 71 | 0.0 | 0.0 | 0.00 | 0.00 | 0.00 | 94 | 1011.2 | |
| 20260906071018 | 71 | 0.0 | 0.0 | 0.00 | 0.00 | 0.00 | 94 | 1011.2 | |
| 20260906070515 | 72 | 200 | 0.0 | 2.0 | 0.00 | 0.00 | 0.00 | 93 | 1011.2 |
| 20260906070039 | 72 | 192 | 0.0 | 2.0 | 0.00 | 0.00 | 0.00 | 93 | 1011.3 |
| 20260906065519 | 72 | 192 | 0.0 | 2.0 | 0.00 | 0.00 | 0.00 | 93 | 1011.3 |
| 20260906065018 | 72 | 188 | 0.0 | 2.0 | 0.00 | 0.00 | 0.00 | 93 | 1011.3 |
| 20260906064519 | 72 | 189 | 0.0 | 2.0 | 0.00 | 0.00 | 0.00 | 93 | 1011.3 |
| 20260906064019 | 72 | 180 | 0.0 | 1.0 | 0.00 | 0.00 | 0.00 | 93 | 1011.3 |
| 20260906063519 | 72 | 0.0 | 0.0 | 0.00 | 0.00 | 0.00 | 93 | 1011.3 | |
| 20260906063019 | 72 | 183 | 0.0 | 3.0 | 0.00 | 0.00 | 0.00 | 93 | 1011.4 |
| 20260906062519 | 72 | 197 | 0.0 | 1.0 | 0.00 | 0.00 | 0.00 | 93 | 1011.4 |
| 20260906062019 | 72 | 203 | 0.0 | 2.0 | 0.00 | 0.00 | 0.00 | 93 | 1011.5 |
| 20260906061539 | 72 | 188 | 0.0 | 2.0 | 0.00 | 0.00 | 0.00 | 93 | 1011.5 |
| 20260906061019 | 72 | 189 | 0.0 | 2.0 | 0.00 | 0.00 | 0.00 | 92 | 1011.6 |
| 20260906060539 | 72 | 0.0 | 0.0 | 0.00 | 0.00 | 0.00 | 92 | 1011.6 | |
| 20260906060056 | 72 | 184 | 0.0 | 1.0 | 0.00 | 0.00 | 0.00 | 92 | 1011.6 |
| 20260906055516 | 72 | 194 | 0.0 | 2.0 | 0.00 | 0.00 | 0.00 | 91 | 1011.6 |
| 20260906055036 | 72 | 203 | 0.0 | 2.0 | 0.00 | 0.00 | 0.00 | 91 | 1011.6 |
| 20260906054536 | 72 | 199 | 0.0 | 1.0 | 0.00 | 0.00 | 0.00 | 90 | 1011.7 |
| 20260906054016 | 73 | 196 | 0.0 | 2.0 | 0.00 | 0.00 | 0.00 | 90 | 1011.8 |
| 20260906053516 | 73 | 191 | 0.0 | 2.0 | 0.00 | 0.00 | 0.00 | 90 | 1011.9 |
| 20260906053017 | 73 | 190 | 0.0 | 2.0 | 0.00 | 0.00 | 0.00 | 89 | 1011.9 |
| 20260906052517 | 73 | 189 | 1.0 | 2.0 | 0.00 | 0.00 | 0.00 | 88 | 1012.0 |
| 20260906052037 | 73 | 189 | 1.0 | 3.0 | 0.00 | 0.00 | 0.00 | 89 | 1011.9 |
| 20260906051517 | 73 | 186 | 0.0 | 1.0 | 0.00 | 0.00 | 0.00 | 89 | 1011.9 |
| 20260906051017 | 73 | 0.0 | 0.0 | 0.00 | 0.00 | 0.00 | 88 | 1011.9 | |
| 20260906050517 | 73 | 0.0 | 0.0 | 0.00 | 0.00 | 0.00 | 88 | 1012.0 | |
| 20260906050017 | 73 | 191 | 0.0 | 1.0 | 0.00 | 0.00 | 0.00 | 87 | 1012.0 |
| 20260906045517 | 74 | 187 | 0.0 | 1.0 | 0.00 | 0.00 | 0.00 | 87 | 1012.0 |
| 20260906045017 | 74 | 194 | 0.0 | 2.0 | 0.00 | 0.00 | 0.00 | 87 | 1012.0 |
| 20260906044517 | 74 | 188 | 1.0 | 2.0 | 0.00 | 0.00 | 0.00 | 87 | 1012.1 |
| 20260906044038 | 74 | 189 | 1.0 | 3.0 | 0.00 | 0.00 | 0.00 | 87 | 1012.1 |
| 20260906043517 | 74 | 194 | 0.0 | 2.0 | 0.00 | 0.00 | 0.00 | 87 | 1012.1 |
| 20260906043017 | 74 | 0.0 | 0.0 | 0.00 | 0.00 | 0.00 | 86 | 1012.1 | |
| 20260906042537 | 74 | 0.0 | 0.0 | 0.00 | 0.00 | 0.00 | 86 | 1012.1 | |
| 20260906042057 | 74 | 202 | 0.0 | 3.0 | 0.00 | 0.00 | 0.00 | 86 | 1012.2 |
| 20260906041517 | 74 | 198 | 0.0 | 3.0 | 0.00 | 0.00 | 0.00 | 86 | 1012.2 |
| 20260906041018 | 74 | 187 | 1.0 | 4.0 | 0.00 | 0.00 | 0.00 | 86 | 1012.2 |
| 20260906040518 | 74 | 197 | 0.0 | 2.0 | 0.00 | 0.00 | 0.00 | 86 | 1012.2 |
| 20260906040018 | 74 | 294 | 0.0 | 2.0 | 0.00 | 0.00 | 0.00 | 86 | 1012.1 |
| 20260906035518 | 74 | 287 | 0.0 | 1.0 | 0.00 | 0.00 | 0.00 | 86 | 1012.2 |
| 20260906035038 | 74 | 277 | 0.0 | 2.0 | 0.00 | 0.00 | 0.00 | 87 | 1012.2 |
| 20260906034515 | 74 | 306 | 0.0 | 1.0 | 0.00 | 0.00 | 0.00 | 87 | 1012.3 |
| 20260906034015 | 74 | 221 | 0.0 | 3.0 | 0.00 | 0.00 | 0.00 | 87 | 1012.3 |
| 20260906033535 | 74 | 216 | 0.0 | 3.0 | 0.00 | 0.00 | 0.00 | 87 | 1012.4 |
| 20260906033035 | 74 | 197 | 1.0 | 3.0 | 0.00 | 0.00 | 0.00 | 87 | 1012.4 |
| 20260906032536 | 74 | 209 | 1.0 | 4.0 | 0.00 | 0.00 | 0.00 | 87 | 1012.5 |
| 20260906032015 | 74 | 206 | 0.0 | 2.0 | 0.00 | 0.00 | 0.00 | 88 | 1012.5 |
| 20260906031515 | 74 | 197 | 0.0 | 3.0 | 0.00 | 0.00 | 0.00 | 88 | 1012.5 |
| 20260906031016 | 74 | 215 | 1.0 | 2.0 | 0.00 | 0.00 | 0.00 | 88 | 1012.5 |
| 20260906030516 | 74 | 196 | 1.0 | 4.0 | 0.00 | 0.00 | 0.00 | 88 | 1012.5 |
| 20260906030016 | 74 | 249 | 0.0 | 3.0 | 0.00 | 0.00 | 0.00 | 88 | 1012.5 |
| 20260906025516 | 74 | 211 | 1.0 | 4.0 | 0.00 | 0.00 | 0.00 | 88 | 1012.5 |
| 20260906025036 | 74 | 205 | 0.0 | 1.0 | 0.00 | 0.00 | 0.00 | 88 | 1012.3 |
| 20260906024516 | 74 | 196 | 0.0 | 3.0 | 0.00 | 0.00 | 0.00 | 88 | 1012.2 |
| 20260906024016 | 75 | 200 | 0.0 | 1.0 | 0.00 | 0.00 | 0.00 | 89 | 1012.2 |
| 20260906023516 | 75 | 235 | 0.0 | 1.0 | 0.00 | 0.00 | 0.00 | 89 | 1012.2 |
| 20260906023016 | 75 | 231 | 0.0 | 1.0 | 0.00 | 0.00 | 0.00 | 88 | 1012.2 |
| 20260906022516 | 75 | 0.0 | 0.0 | 0.00 | 0.00 | 0.00 | 88 | 1012.2 | |
| 20260906022016 | 75 | 0.0 | 0.0 | 0.00 | 0.00 | 0.00 | 88 | 1012.2 | |
| 20260906021517 | 75 | 266 | 0.0 | 1.0 | 0.00 | 0.00 | 0.00 | 88 | 1012.2 |
| 20260906021016 | 75 | 195 | 1.0 | 3.0 | 0.00 | 0.00 | 0.00 | 88 | 1012.2 |
| 20260906020516 | 75 | 190 | 0.0 | 2.0 | 0.00 | 0.00 | 0.00 | 88 | 1012.3 |
| 20260906020016 | 75 | 196 | 0.0 | 1.0 | 0.00 | 0.00 | 0.00 | 89 | 1012.2 |
| 20260906015517 | 75 | 183 | 1.0 | 2.0 | 0.00 | 0.00 | 0.00 | 89 | 1012.2 |
| 20260906015017 | 75 | 203 | 0.0 | 2.0 | 0.00 | 0.00 | 0.00 | 88 | 1012.1 |
| 20260906014517 | 75 | 296 | 0.0 | 2.0 | 0.00 | 0.00 | 0.00 | 88 | 1012.2 |
| 20260906014017 | 75 | 216 | 0.0 | 1.0 | 0.00 | 0.00 | 0.00 | 88 | 1012.2 |
| 20260906013517 | 75 | 0.0 | 0.0 | 0.00 | 0.00 | 0.00 | 87 | 1012.2 | |
| 20260906013037 | 76 | 210 | 0.0 | 1.0 | 0.00 | 0.00 | 0.00 | 87 | 1012.1 |
| 20260906012537 | 76 | 201 | 0.0 | 2.0 | 0.00 | 0.00 | 0.00 | 86 | 1012.1 |
| 20260906012037 | 76 | 194 | 0.0 | 2.0 | 0.00 | 0.00 | 0.00 | 85 | 1012.1 |
| 20260906011537 | 76 | 200 | 0.0 | 2.0 | 0.00 | 0.00 | 0.00 | 85 | 1012.0 |
| 20260906011017 | 76 | 181 | 0.0 | 1.0 | 0.00 | 0.00 | 0.00 | 84 | 1012.0 |
| 20260906010517 | 77 | 200 | 0.0 | 2.0 | 0.00 | 0.00 | 0.00 | 83 | 1012.1 |
| 20260906010017 | 77 | 186 | 0.0 | 0.0 | 0.00 | 0.00 | 0.00 | 83 | 1012.2 |
| 20260906005538 | 77 | 194 | 1.0 | 3.0 | 0.00 | 0.00 | 0.00 | 84 | 1012.1 |
| 20260906005017 | 77 | 196 | 0.0 | 2.0 | 0.00 | 0.00 | 0.00 | 84 | 1012.1 |
| 20260906004518 | 77 | 194 | 1.0 | 4.0 | 0.00 | 0.00 | 0.00 | 83 | 1012.1 |
| 20260906004038 | 77 | 191 | 1.0 | 3.0 | 0.00 | 0.00 | 0.00 | 83 | 1012.0 |
| 20260906003515 | 78 | 200 | 1.0 | 3.0 | 0.00 | 0.00 | 0.00 | 83 | 1012.0 |
| 20260906003018 | 78 | 197 | 0.0 | 2.0 | 0.00 | 0.00 | 0.00 | 82 | 1011.9 |
| 20260906002518 | 78 | 209 | 0.0 | 1.0 | 0.00 | 0.00 | 0.00 | 82 | 1011.9 |
| 20260906002018 | 78 | 35 | 0.0 | 2.0 | 0.00 | 0.00 | 0.00 | 82 | 1011.8 |
| 20260906001538 | 78 | 200 | 1.0 | 4.0 | 0.00 | 0.00 | 0.00 | 82 | 1011.8 |
| 20260906001016 | 79 | 199 | 0.0 | 3.0 | 0.00 | 0.00 | 0.00 | 82 | 1011.7 |
| 20260906000555 | 79 | 185 | 1.0 | 4.0 | 0.00 | 0.00 | 0.00 | 81 | 1011.7 |
| 20260906000015 | 79 | 193 | 1.0 | 3.0 | 0.00 | 0.00 | 0.00 | 81 | 1011.5 |
| 20260905235516 | 79 | 194 | 2.0 | 3.0 | 0.00 | 0.00 | 0.00 | 80 | 1011.4 |
| 20260905235016 | 80 | 185 | 1.0 | 3.0 | 0.00 | 0.00 | 0.00 | 78 | 1011.3 |
| 20260905234516 | 80 | 0.0 | 0.0 | 0.00 | 0.00 | 0.00 | 77 | 1011.2 | |
| 20260905234016 | 80 | 0.0 | 0.0 | 0.00 | 0.00 | 0.00 | 77 | 1011.1 | |
| 20260905233516 | 81 | 0.0 | 0.0 | 0.00 | 0.00 | 0.00 | 76 | 1011.0 | |
| 20260905233056 | 81 | 263 | 0.0 | 2.0 | 0.00 | 0.00 | 0.00 | 75 | 1011.0 |
| 20260905232517 | 81 | 133 | 0.0 | 1.0 | 0.00 | 0.00 | 0.00 | 75 | 1011.0 |
| 20260905232016 | 81 | 83 | 0.0 | 2.0 | 0.00 | 0.00 | 0.00 | 75 | 1011.0 |
| 20260905231516 | 82 | 63 | 0.0 | 2.0 | 0.00 | 0.00 | 0.00 | 74 | 1011.0 |
| 20260905231016 | 82 | 85 | 1.0 | 3.0 | 0.00 | 0.00 | 0.00 | 73 | 1011.0 |
| 20260905230517 | 83 | 88 | 0.0 | 2.0 | 0.00 | 0.00 | 0.00 | 72 | 1011.0 |
| 20260905230017 | 83 | 267 | 0.0 | 2.0 | 0.00 | 0.00 | 0.00 | 72 | 1011.0 |
| 20260905225517 | 83 | 89 | 1.0 | 3.0 | 0.00 | 0.00 | 0.00 | 71 | 1010.9 |
| 20260905225017 | 84 | 91 | 1.0 | 3.0 | 0.00 | 0.00 | 0.00 | 70 | 1010.9 |
| 20260905224537 | 85 | 77 | 1.0 | 3.0 | 0.00 | 0.00 | 0.00 | 68 | 1011.0 |
| 20260905224017 | 85 | 79 | 0.0 | 3.0 | 0.00 | 0.00 | 0.00 | 67 | 1010.9 |
| 20260905223517 | 86 | 96 | 1.0 | 3.0 | 0.00 | 0.00 | 0.00 | 67 | 1010.9 |
| 20260905223017 | 86 | 92 | 1.0 | 5.0 | 0.00 | 0.00 | 0.00 | 65 | 1010.8 |
| 20260905222517 | 86 | 304 | 1.0 | 3.0 | 0.00 | 0.00 | 0.00 | 64 | 1010.7 |
| 20260905222018 | 86 | 310 | 1.0 | 3.0 | 0.00 | 0.00 | 0.00 | 63 | 1010.7 |
| 20260905221517 | 86 | 86 | 1.0 | 3.0 | 0.00 | 0.00 | 0.00 | 64 | 1010.9 |
| 20260905221017 | 86 | 111 | 1.0 | 3.0 | 0.00 | 0.00 | 0.00 | 63 | 1010.9 |
| 20260905220517 | 86 | 252 | 0.0 | 3.0 | 0.00 | 0.00 | 0.00 | 64 | 1010.9 |
| 20260905220018 | 84 | 220 | 0.0 | 3.0 | 0.00 | 0.00 | 0.00 | 67 | 1010.8 |
| 20260905215518 | 83 | 143 | 1.0 | 2.0 | 0.00 | 0.00 | 0.00 | 70 | 1010.8 |
| 20260905215018 | 82 | 167 | 0.0 | 3.0 | 0.00 | 0.00 | 0.00 | 71 | 1010.7 |
| 20260905214518 | 81 | 119 | 0.0 | 2.0 | 0.00 | 0.00 | 0.00 | 72 | 1010.8 |
| 20260905214018 | 81 | 0.0 | 0.0 | 0.00 | 0.00 | 0.00 | 73 | 1010.8 | |
| 20260905213518 | 81 | 305 | 0.0 | 2.0 | 0.00 | 0.00 | 0.00 | 73 | 1011.0 |
| 20260905213018 | 82 | 68 | 0.0 | 3.0 | 0.00 | 0.00 | 0.00 | 73 | 1011.3 |
| 20260905212518 | 82 | 56 | 0.0 | 2.0 | 0.00 | 0.00 | 0.00 | 72 | 1011.5 |
| 20260905212017 | 82 | 72 | 1.0 | 2.0 | 0.00 | 0.00 | 0.00 | 71 | 1011.7 |
| 20260905211516 | 82 | 67 | 0.0 | 2.0 | 0.00 | 0.00 | 0.00 | 71 | 1011.9 |
| 20260905211015 | 82 | 82 | 0.0 | 2.0 | 0.00 | 0.00 | 0.00 | 70 | 1011.8 |
| 20260905210515 | 82 | 275 | 0.0 | 2.0 | 0.00 | 0.00 | 0.00 | 69 | 1011.8 |
| 20260905210016 | 82 | 253 | 0.0 | 2.0 | 0.00 | 0.00 | 0.00 | 69 | 1011.8 |
| 20260905205516 | 82 | 311 | 0.0 | 2.0 | 0.00 | 0.00 | 0.00 | 69 | 1011.6 |
| 20260905205136 | 82 | 303 | 0.0 | 1.0 | 0.00 | 0.00 | 0.00 | 68 | 1011.5 |
| 20260905204515 | 82 | 285 | 0.0 | 1.0 | 0.00 | 0.00 | 0.00 | 68 | 1011.4 |
| 20260905204016 | 82 | 313 | 0.0 | 1.0 | 0.00 | 0.00 | 0.00 | 68 | 1011.5 |
| 20260905203516 | 82 | 267 | 0.0 | 3.0 | 0.00 | 0.00 | 0.00 | 68 | 1011.5 |
| 20260905203036 | 82 | 284 | 0.0 | 2.0 | 0.00 | 0.00 | 0.00 | 68 | 1011.3 |
| 20260905202516 | 82 | 300 | 1.0 | 3.0 | 0.00 | 0.00 | 0.00 | 67 | 1011.3 |
| 20260905202016 | 82 | 299 | 1.0 | 3.0 | 0.00 | 0.00 | 0.00 | 67 | 1011.2 |
| 20260905201517 | 83 | 245 | 1.0 | 3.0 | 0.00 | 0.00 | 0.00 | 66 | 1011.1 |
| 20260905201016 | 83 | 277 | 2.0 | 6.0 | 0.00 | 0.00 | 0.00 | 65 | 1011.0 |
| 20260905200517 | 84 | 274 | 2.0 | 4.0 | 0.00 | 0.00 | 0.00 | 63 | 1011.0 |
| 20260905200016 | 85 | 102 | 1.0 | 5.0 | 0.00 | 0.00 | 0.00 | 62 | 1011.0 |
| 20260905195517 | 86 | 203 | 2.0 | 6.0 | 0.00 | 0.00 | 0.00 | 59 | 1011.1 |
| 20260905195017 | 86 | 193 | 2.0 | 5.0 | 0.00 | 0.00 | 0.00 | 58 | 1010.7 |
| 20260905194517 | 87 | 124 | 2.0 | 7.0 | 0.00 | 0.00 | 0.00 | 57 | 1010.6 |
| 20260905194017 | 89 | 87 | 3.0 | 7.0 | 0.00 | 0.00 | 0.00 | 56 | 1010.9 |
| 20260905193517 | 91 | 86 | 3.0 | 11.0 | 0.00 | 0.00 | 0.00 | 55 | 1011.0 |
| 20260905193018 | 95 | 110 | 3.0 | 9.0 | 0.00 | 0.00 | 0.00 | 52 | 1011.2 |
| 20260905192517 | 99 | 267 | 4.0 | 10.0 | 0.00 | 0.00 | 0.00 | 45 | 1011.1 |
| 20260905192017 | 100 | 297 | 2.0 | 4.0 | 0.00 | 0.00 | 0.00 | 42 | 1011.0 |
| 20260905191517 | 100 | 219 | 2.0 | 4.0 | 0.00 | 0.00 | 0.00 | 44 | 1010.9 |
| 20260905191017 | 100 | 272 | 2.0 | 7.0 | 0.00 | 0.00 | 0.00 | 43 | 1010.9 |
| 20260905190517 | 100 | 262 | 2.0 | 5.0 | 0.00 | 0.00 | 0.00 | 43 | 1010.9 |
| 20260905190017 | 100 | 225 | 2.0 | 5.0 | 0.00 | 0.00 | 0.00 | 43 | 1010.9 |
| 20260905185518 | 100 | 170 | 2.0 | 4.0 | 0.00 | 0.00 | 0.00 | 43 | 1010.9 |
| 20260905185018 | 99 | 279 | 1.0 | 4.0 | 0.00 | 0.00 | 0.00 | 43 | 1010.9 |
| 20260905184518 | 98 | 241 | 1.0 | 4.0 | 0.00 | 0.00 | 0.00 | 44 | 1011.0 |
| 20260905184018 | 98 | 293 | 1.0 | 4.0 | 0.00 | 0.00 | 0.00 | 45 | 1011.1 |
| 20260905183517 | 98 | 284 | 1.0 | 5.0 | 0.00 | 0.00 | 0.00 | 46 | 1011.1 |
| 20260905183037 | 98 | 312 | 2.0 | 5.0 | 0.00 | 0.00 | 0.00 | 46 | 1011.2 |
| 20260905182518 | 98 | 285 | 2.0 | 5.0 | 0.00 | 0.00 | 0.00 | 46 | 1011.3 |
| 20260905182016 | 98 | 315 | 2.0 | 5.0 | 0.00 | 0.00 | 0.00 | 46 | 1011.3 |
| 20260905181518 | 98 | 294 | 2.0 | 4.0 | 0.00 | 0.00 | 0.00 | 48 | 1011.4 |
| 20260905181015 | 98 | 286 | 1.0 | 3.0 | 0.00 | 0.00 | 0.00 | 46 | 1011.5 |
| 20260905180518 | 98 | 249 | 1.0 | 3.0 | 0.00 | 0.00 | 0.00 | 49 | 1011.5 |
| 20260905180018 | 97 | 295 | 1.0 | 5.0 | 0.00 | 0.00 | 0.00 | 49 | 1011.6 |
| 20260905175515 | 96 | 141 | 1.0 | 3.0 | 0.00 | 0.00 | 0.00 | 49 | 1011.8 |
| 20260905175018 | 96 | 303 | 2.0 | 5.0 | 0.00 | 0.00 | 0.00 | 50 | 1012.0 |
| 20260905174536 | 97 | 300 | 1.0 | 4.0 | 0.00 | 0.00 | 0.00 | 49 | 1012.1 |
| 20260905174016 | 97 | 214 | 2.0 | 4.0 | 0.00 | 0.00 | 0.00 | 49 | 1012.2 |
| 20260905173515 | 96 | 267 | 1.0 | 3.0 | 0.00 | 0.00 | 0.00 | 51 | 1012.3 |
| 20260905173016 | 96 | 201 | 2.0 | 5.0 | 0.00 | 0.00 | 0.00 | 52 | 1012.3 |
| 20260905172516 | 96 | 186 | 4.0 | 8.0 | 0.00 | 0.00 | 0.00 | 52 | 1012.4 |
| 20260905172016 | 96 | 182 | 2.0 | 6.0 | 0.00 | 0.00 | 0.00 | 50 | 1012.5 |
| 20260905171516 | 96 | 176 | 2.0 | 5.0 | 0.00 | 0.00 | 0.00 | 51 | 1012.6 |
| 20260905171016 | 96 | 232 | 1.0 | 3.0 | 0.00 | 0.00 | 0.00 | 50 | 1012.7 |
| 20260905170516 | 96 | 302 | 1.0 | 3.0 | 0.00 | 0.00 | 0.00 | 50 | 1012.8 |
| 20260905170036 | 96 | 286 | 1.0 | 3.0 | 0.00 | 0.00 | 0.00 | 52 | 1012.8 |
| 20260905165556 | 96 | 111 | 1.0 | 4.0 | 0.00 | 0.00 | 0.00 | 55 | 1012.9 |
| 20260905165016 | 95 | 104 | 2.0 | 4.0 | 0.00 | 0.00 | 0.00 | 55 | 1012.9 |
| 20260905164516 | 95 | 187 | 1.0 | 3.0 | 0.00 | 0.00 | 0.00 | 56 | 1013.0 |
| 20260905164016 | 95 | 198 | 1.0 | 3.0 | 0.00 | 0.00 | 0.00 | 57 | 1013.0 |
| 20260905163537 | 94 | 193 | 1.0 | 5.0 | 0.00 | 0.00 | 0.00 | 57 | 1013.1 |
| 20260905163017 | 94 | 238 | 1.0 | 3.0 | 0.00 | 0.00 | 0.00 | 56 | 1013.1 |
| 20260905162516 | 94 | 198 | 1.0 | 4.0 | 0.00 | 0.00 | 0.00 | 57 | 1013.2 |
| 20260905162017 | 93 | 149 | 1.0 | 3.0 | 0.00 | 0.00 | 0.00 | 57 | 1013.2 |
| 20260905161517 | 93 | 290 | 1.0 | 4.0 | 0.00 | 0.00 | 0.00 | 59 | 1013.3 |
| 20260905161017 | 93 | 286 | 1.0 | 3.0 | 0.00 | 0.00 | 0.00 | 61 | 1013.3 |
| 20260905160517 | 92 | 195 | 2.0 | 5.0 | 0.00 | 0.00 | 0.00 | 61 | 1013.4 |
| 20260905160057 | 92 | 308 | 1.0 | 3.0 | 0.00 | 0.00 | 0.00 | 62 | 1013.5 |
| 20260905155537 | 92 | 313 | 1.0 | 5.0 | 0.00 | 0.00 | 0.00 | 61 | 1013.5 |
| 20260905155017 | 92 | 272 | 1.0 | 4.0 | 0.00 | 0.00 | 0.00 | 62 | 1013.6 |
| 20260905154517 | 91 | 205 | 1.0 | 4.0 | 0.00 | 0.00 | 0.00 | 63 | 1013.5 |
| 20260905154037 | 91 | 197 | 2.0 | 4.0 | 0.00 | 0.00 | 0.00 | 63 | 1013.6 |
| 20260905153557 | 91 | 296 | 1.0 | 4.0 | 0.00 | 0.00 | 0.00 | 64 | 1013.6 |
| 20260905153017 | 91 | 308 | 1.0 | 5.0 | 0.00 | 0.00 | 0.00 | 64 | 1013.6 |
| 20260905152517 | 90 | 302 | 1.0 | 4.0 | 0.00 | 0.00 | 0.00 | 65 | 1013.6 |
| 20260905152017 | 90 | 317 | 1.0 | 4.0 | 0.00 | 0.00 | 0.00 | 65 | 1013.5 |
| 20260905151518 | 90 | 303 | 1.0 | 4.0 | 0.00 | 0.00 | 0.00 | 66 | 1013.4 |
| 20260905151017 | 89 | 305 | 1.0 | 3.0 | 0.00 | 0.01 | 0.00 | 66 | 1013.5 |
| 20260905150517 | 89 | 274 | 1.0 | 4.0 | 0.00 | 0.01 | 0.00 | 67 | 1013.5 |
| 20260905150017 | 88 | 308 | 1.0 | 3.0 | 0.00 | 0.01 | 0.00 | 69 | 1013.5 |
| 20260905145517 | 88 | 272 | 1.0 | 6.0 | 0.00 | 0.01 | 0.00 | 69 | 1013.6 |
| 20260905145018 | 88 | 293 | 1.0 | 4.0 | 0.00 | 0.01 | 0.00 | 69 | 1013.7 |
| 20260905144518 | 88 | 208 | 2.0 | 4.0 | 0.00 | 0.01 | 0.00 | 69 | 1013.7 |
| 20260905144015 | 87 | 292 | 1.0 | 5.0 | 0.00 | 0.01 | 0.00 | 69 | 1013.7 |
| 20260905143515 | 87 | 303 | 2.0 | 4.0 | 0.00 | 0.01 | 0.00 | 71 | 1013.7 |
| 20260905143055 | 87 | 311 | 1.0 | 4.0 | 0.00 | 0.01 | 0.00 | 71 | 1013.7 |
| 20260905142515 | 86 | 201 | 1.0 | 4.0 | 0.00 | 0.01 | 0.00 | 72 | 1013.6 |
| 20260905142018 | 86 | 197 | 2.0 | 6.0 | 0.00 | 0.01 | 0.00 | 73 | 1013.7 |
| 20260905141515 | 85 | 204 | 2.0 | 5.0 | 0.00 | 0.01 | 0.00 | 73 | 1013.7 |
| 20260905141015 | 85 | 255 | 1.0 | 6.0 | 0.00 | 0.01 | 0.00 | 74 | 1013.8 |
| 20260905140515 | 84 | 298 | 1.0 | 4.0 | 0.00 | 0.01 | 0.00 | 75 | 1013.7 |
| 20260905140015 | 84 | 247 | 2.0 | 5.0 | 0.00 | 0.01 | 0.00 | 75 | 1013.7 |
| 20260905135515 | 84 | 261 | 2.0 | 4.0 | 0.00 | 0.01 | 0.00 | 76 | 1013.7 |
| 20260905135016 | 84 | 231 | 2.0 | 6.0 | 0.00 | 0.01 | 0.00 | 76 | 1013.7 |
| 20260905134515 | 83 | 224 | 1.0 | 5.0 | 0.00 | 0.01 | 0.00 | 77 | 1013.8 |
| 20260905134016 | 83 | 271 | 2.0 | 4.0 | 0.00 | 0.01 | 0.00 | 78 | 1013.9 |
| 20260905133516 | 82 | 199 | 1.0 | 5.0 | 0.00 | 0.01 | 0.00 | 78 | 1013.9 |
| 20260905133036 | 82 | 236 | 2.0 | 6.0 | 0.00 | 0.01 | 0.00 | 79 | 1013.9 |
| 20260905132516 | 82 | 263 | 2.0 | 5.0 | 0.00 | 0.01 | 0.00 | 80 | 1013.9 |
| 20260905132016 | 82 | 274 | 1.0 | 4.0 | 0.00 | 0.01 | 0.00 | 80 | 1013.9 |
| 20260905131516 | 81 | 264 | 2.0 | 6.0 | 0.00 | 0.01 | 0.00 | 81 | 1014.0 |
| 20260905131016 | 81 | 281 | 1.0 | 5.0 | 0.00 | 0.01 | 0.00 | 82 | 1014.0 |
| 20260905130516 | 81 | 270 | 1.0 | 4.0 | 0.00 | 0.01 | 0.00 | 82 | 1014.1 |
| 20260905130017 | 80 | 237 | 1.0 | 5.0 | 0.00 | 0.01 | 0.00 | 83 | 1014.1 |
| 20260905125516 | 80 | 214 | 1.0 | 4.0 | 0.00 | 0.01 | 0.00 | 84 | 1014.1 |
| 20260905125016 | 79 | 193 | 1.0 | 4.0 | 0.00 | 0.01 | 0.00 | 84 | 1014.2 |
| 20260905124516 | 79 | 223 | 1.0 | 6.0 | 0.00 | 0.01 | 0.00 | 85 | 1014.2 |
| 20260905124017 | 79 | 208 | 2.0 | 9.0 | 0.00 | 0.01 | 0.00 | 85 | 1014.2 |
| 20260905123537 | 79 | 259 | 2.0 | 7.0 | 0.00 | 0.01 | 0.00 | 86 | 1014.2 |
| 20260905123017 | 78 | 234 | 2.0 | 5.0 | 0.00 | 0.01 | 0.00 | 86 | 1014.2 |
| 20260905122536 | 78 | 241 | 1.0 | 5.0 | 0.00 | 0.01 | 0.00 | 87 | 1014.2 |
| 20260905122017 | 78 | 229 | 1.0 | 4.0 | 0.00 | 0.01 | 0.00 | 87 | 1014.2 |
| 20260905121517 | 77 | 204 | 1.0 | 7.0 | 0.00 | 0.01 | 0.00 | 88 | 1014.2 |
| 20260905121017 | 77 | 303 | 1.0 | 3.0 | 0.00 | 0.01 | 0.00 | 88 | 1014.2 |
| 20260905120517 | 77 | 264 | 1.0 | 4.0 | 0.00 | 0.01 | 0.00 | 89 | 1014.1 |
| 20260905120017 | 77 | 297 | 1.0 | 3.0 | 0.00 | 0.01 | 0.00 | 90 | 1014.1 |
| 20260905115538 | 76 | 277 | 2.0 | 5.0 | 0.00 | 0.01 | 0.00 | 90 | 1014.0 |
| 20260905115017 | 76 | 332 | 1.0 | 4.0 | 0.00 | 0.01 | 0.00 | 90 | 1014.0 |
| 20260905114517 | 76 | 286 | 1.0 | 5.0 | 0.00 | 0.01 | 0.00 | 91 | 1013.9 |
| 20260905114018 | 76 | 287 | 1.0 | 3.0 | 0.00 | 0.01 | 0.00 | 91 | 1013.9 |
| 20260905113517 | 76 | 252 | 0.0 | 3.0 | 0.00 | 0.01 | 0.00 | 91 | 1013.8 |
| 20260905113018 | 76 | 220 | 1.0 | 4.0 | 0.00 | 0.01 | 0.00 | 92 | 1013.6 |
| 20260905112518 | 76 | 225 | 0.0 | 4.0 | 0.00 | 0.01 | 0.00 | 91 | 1013.6 |
| 20260905112018 | 76 | 214 | 1.0 | 4.0 | 0.00 | 0.01 | 0.00 | 91 | 1013.5 |
| 20260905111517 | 76 | 286 | 0.0 | 2.0 | 0.00 | 0.01 | 0.00 | 91 | 1013.4 |
| 20260905111018 | 76 | 266 | 1.0 | 3.0 | 0.00 | 0.01 | 0.00 | 91 | 1013.2 |
| 20260905110518 | 76 | 196 | 1.0 | 4.0 | 0.00 | 0.01 | 0.00 | 91 | 1013.1 |
| 20260905110018 | 75 | 189 | 1.0 | 4.0 | 0.00 | 0.01 | 0.00 | 91 | 1013.1 |
| 20260905105515 | 76 | 186 | 1.0 | 3.0 | 0.00 | 0.01 | 0.00 | 91 | 1013.1 |
| 20260905105016 | 75 | 186 | 2.0 | 6.0 | 0.00 | 0.01 | 0.00 | 91 | 1013.1 |
| 20260905104515 | 75 | 187 | 1.0 | 3.0 | 0.00 | 0.01 | 0.00 | 91 | 1013.1 |
| 20260905104016 | 75 | 182 | 1.0 | 4.0 | 0.00 | 0.01 | 0.00 | 91 | 1013.0 |
| 20260905103515 | 75 | 175 | 1.0 | 5.0 | 0.00 | 0.01 | 0.00 | 91 | 1013.0 |
| 20260905103015 | 76 | 187 | 0.0 | 2.0 | 0.00 | 0.01 | 0.00 | 91 | 1012.9 |
| 20260905102536 | 76 | 179 | 1.0 | 3.0 | 0.00 | 0.01 | 0.00 | 91 | 1012.9 |
| 20260905102016 | 76 | 192 | 1.0 | 3.0 | 0.00 | 0.01 | 0.00 | 91 | 1012.9 |
| 20260905101516 | 75 | 184 | 1.0 | 3.0 | 0.00 | 0.01 | 0.00 | 91 | 1012.9 |
| 20260905101016 | 75 | 185 | 1.0 | 4.0 | 0.00 | 0.01 | 0.00 | 91 | 1012.9 |
| 20260905100516 | 75 | 183 | 0.0 | 3.0 | 0.00 | 0.01 | 0.00 | 91 | 1012.8 |
| 20260905100016 | 76 | 0.0 | 0.0 | 0.00 | 0.01 | 0.00 | 91 | 1012.8 | |
| 20260905095516 | 76 | 216 | 0.0 | 1.0 | 0.00 | 0.01 | 0.00 | 91 | 1012.8 |
| 20260905095016 | 76 | 206 | 0.0 | 2.0 | 0.00 | 0.01 | 0.00 | 90 | 1012.9 |
| 20260905094556 | 76 | 200 | 0.0 | 1.0 | 0.00 | 0.01 | 0.00 | 89 | 1013.0 |
| 20260905094016 | 76 | 0.0 | 0.0 | 0.00 | 0.01 | 0.00 | 88 | 1012.9 | |
| 20260905093516 | 76 | 0.0 | 0.0 | 0.00 | 0.01 | 0.00 | 88 | 1012.9 | |
| 20260905093016 | 77 | 0.0 | 0.0 | 0.00 | 0.01 | 0.00 | 88 | 1012.8 | |
| 20260905092516 | 77 | 0.0 | 0.0 | 0.00 | 0.01 | 0.00 | 88 | 1012.8 | |
| 20260905092017 | 77 | 193 | 0.0 | 2.0 | 0.00 | 0.01 | 0.00 | 87 | 1012.8 |
| 20260905091517 | 77 | 295 | 0.0 | 2.0 | 0.00 | 0.01 | 0.00 | 87 | 1012.8 |
| 20260905091016 | 77 | 322 | 0.0 | 1.0 | 0.00 | 0.01 | 0.00 | 87 | 1012.8 |
| 20260905090520 | 77 | 277 | 0.0 | 2.0 | 0.00 | 0.01 | 0.00 | 87 | 1012.9 |
| 20260905090023 | 77 | 188 | 0.0 | 3.0 | 0.00 | 0.01 | 0.00 | 87 | 1012.9 |
| 20260905085523 | 77 | 183 | 0.0 | 2.0 | 0.00 | 0.01 | 0.00 | 86 | 1013.0 |
| 20260905085023 | 77 | 237 | 1.0 | 4.0 | 0.00 | 0.01 | 0.00 | 86 | 1012.9 |
| 20260905084523 | 77 | 257 | 1.0 | 3.0 | 0.00 | 0.01 | 0.00 | 86 | 1013.0 |
| 20260905084023 | 77 | 254 | 1.0 | 3.0 | 0.00 | 0.01 | 0.00 | 86 | 1013.0 |
| 20260905083528 | 77 | 321 | 1.0 | 3.0 | 0.00 | 0.01 | 0.00 | 86 | 1013.1 |
| 20260905083023 | 77 | 194 | 1.0 | 4.0 | 0.00 | 0.01 | 0.00 | 86 | 1013.1 |
| 20260905082544 | 77 | 245 | 1.0 | 3.0 | 0.00 | 0.01 | 0.00 | 86 | 1013.1 |
| 20260905082023 | 77 | 242 | 1.0 | 3.0 | 0.00 | 0.01 | 0.00 | 86 | 1013.1 |
| 20260905081529 | 77 | 265 | 1.0 | 2.0 | 0.00 | 0.01 | 0.00 | 86 | 1013.2 |
| 20260905081021 | 77 | 250 | 0.0 | 2.0 | 0.00 | 0.01 | 0.00 | 86 | 1013.2 |
| 20260905080525 | 77 | 239 | 0.0 | 3.0 | 0.00 | 0.01 | 0.00 | 85 | 1013.2 |
| 20260905080027 | 77 | 258 | 0.0 | 1.0 | 0.00 | 0.01 | 0.00 | 85 | 1013.3 |